• în România
  • Lista ţărilor
  • Pe 7 zile
  • Temperatura apei
  • Hartă satelitară
  • Meteo pe hartă
  • Widget-uri
  • user-avatar
    Intrare

    Meteo pe oră la Ravda

    Astăzi, 19 Septembrie, Miercuri

    Timp Temperatura Precipitaţii Vânt Presiune Umiditate
    00:00 +17°C° 0 mm 3 m/s 767 mmHg 80%
    01:00 +16°C° 0 mm 3 m/s 767 mmHg 83%
    02:00 +16°C° 0 mm 3 m/s 766 mmHg 83%
    03:00 +16°C° 0 mm 3 m/s 766 mmHg 84%
    04:00 +16°C° 0 mm 3 m/s 766 mmHg 85%
    05:00 +16°C° 0 mm 3 m/s 766 mmHg 86%
    06:00 +17°C° 0 mm 4 m/s 766 mmHg 79%
    07:00 +19°C° 0 mm 4 m/s 766 mmHg 73%
    08:00 +20°C° 0 mm 4 m/s 766 mmHg 67%
    09:00 +21°C° 0 mm 4 m/s 766 mmHg 59%
    10:00 +23°C° 0 mm 5 m/s 767 mmHg 52%
    11:00 +26°C° 0 mm 5 m/s 767 mmHg 44%
    12:00 +26°C° 0 mm 5 m/s 766 mmHg 43%
    13:00 +27°C° 0 mm 5 m/s 766 mmHg 41%
    14:00 +27°C° 0 mm 5 m/s 766 mmHg 40%
    15:00 +26°C° 0 mm 5 m/s 766 mmHg 43%
    16:00 +25°C° 0 mm 5 m/s 765 mmHg 47%
    17:00 +25°C° 0 mm 5 m/s 765 mmHg 50%
    18:00 +22°C° 0 mm 5 m/s 765 mmHg 59%
    19:00 +20°C° 0 mm 5 m/s 765 mmHg 68%
    20:00 +18°C° 0 mm 4 m/s 766 mmHg 77%
    21:00 +18°C° 0 mm 4 m/s 766 mmHg 79%
    22:00 +17°C° 0 mm 4 m/s 766 mmHg 82%
    23:00 +17°C° 0 mm 3 m/s 766 mmHg 85%

    Mâine, 20 Septembrie, Joi

    Timp Temperatura Precipitaţii Vânt Presiune Umiditate
    00:00 +16°C° 0 mm 3 m/s 766 mmHg 86%
    01:00 +16°C° 0 mm 3 m/s 765 mmHg 87%
    02:00 +16°C° 0 mm 3 m/s 765 mmHg 89%
    03:00 +16°C° 0 mm 3 m/s 765 mmHg 90%
    04:00 +16°C° 0 mm 3 m/s 765 mmHg 91%
    05:00 +14°C° 0 mm 4 m/s 765 mmHg 92%
    06:00 +17°C° 0 mm 4 m/s 765 mmHg 86%
    07:00 +18°C° 0 mm 4 m/s 765 mmHg 80%
    08:00 +20°C° 0 mm 4 m/s 765 mmHg 74%
    09:00 +22°C° 0 mm 5 m/s 765 mmHg 66%
    10:00 +25°C° 0 mm 5 m/s 765 mmHg 58%
    11:00 +27°C° 0 mm 6 m/s 765 mmHg 51%
    12:00 +28°C° 0 mm 6 m/s 764 mmHg 48%
    13:00 +28°C° 0 mm 6 m/s 764 mmHg 46%
    14:00 +29°C° 0 mm 6 m/s 764 mmHg 43%
    15:00 +28°C° 0 mm 6 m/s 764 mmHg 46%
    16:00 +27°C° 0 mm 5 m/s 763 mmHg 49%
    17:00 +27°C° 0 mm 5 m/s 763 mmHg 53%
    18:00 +25°C° 0 mm 5 m/s 763 mmHg 62%
    19:00 +22°C° 0 mm 4 m/s 764 mmHg 71%
    20:00 +20°C° 0 mm 4 m/s 764 mmHg 81%
    21:00 +19°C° 0 mm 4 m/s 764 mmHg 83%
    22:00 +19°C° 0 mm 3 m/s 764 mmHg 85%
    23:00 +18°C° 0 mm 3 m/s 764 mmHg 88%

    Poimâine, 21 Septembrie, Vineri

    Timp Temperatura Precipitaţii Vânt Presiune Umiditate
    00:00 +18°C° 0 mm 3 m/s 764 mmHg 88%
    01:00 +18°C° 0 mm 3 m/s 764 mmHg 89%
    02:00 +18°C° 0 mm 3 m/s 763 mmHg 89%
    03:00 +17°C° 0 mm 3 m/s 763 mmHg 89%
    04:00 +17°C° 0 mm 3 m/s 763 mmHg 88%
    05:00 +17°C° 0 mm 3 m/s 763 mmHg 88%
    06:00 +18°C° 0 mm 3 m/s 763 mmHg 81%
    07:00 +20°C° 0 mm 4 m/s 764 mmHg 74%
    08:00 +21°C° 0 mm 4 m/s 764 mmHg 67%
    09:00 +23°C° 0 mm 4 m/s 764 mmHg 59%
    10:00 +26°C° 0 mm 4 m/s 764 mmHg 50%
    11:00 +28°C° 0 mm 5 m/s 764 mmHg 42%
    12:00 +29°C° 0 mm 5 m/s 764 mmHg 40%
    13:00 +30°C° 0 mm 5 m/s 763 mmHg 39%
    14:00 +32°C° 0 mm 5 m/s 763 mmHg 37%
    15:00 +30°C° 0 mm 4 m/s 763 mmHg 41%
    16:00 +29°C° 0 mm 4 m/s 763 mmHg 45%
    17:00 +28°C° 0 mm 4 m/s 763 mmHg 49%
    18:00 +26°C° 0 mm 3 m/s 763 mmHg 59%
    19:00 +24°C° 0 mm 3 m/s 763 mmHg 69%
    20:00 +21°C° 0 mm 2 m/s 763 mmHg 78%
    21:00 +20°C° 0 mm 2 m/s 763 mmHg 80%
    22:00 +20°C° 0 mm 2 m/s 763 mmHg 82%
    23:00 +20°C° 0 mm 2 m/s 763 mmHg 84%

    22 Septembrie, Sâmbătă

    Timp Temperatura Precipitaţii Vânt Presiune Umiditate
    00:00 +19°C° 0 mm 2 m/s 763 mmHg 85%
    01:00 +19°C° 0 mm 2 m/s 763 mmHg 85%
    02:00 +19°C° 0 mm 2 m/s 763 mmHg 85%
    03:00 +19°C° 0 mm 2 m/s 763 mmHg 85%
    04:00 +18°C° 0 mm 2 m/s 763 mmHg 85%
    05:00 +18°C° 0 mm 2 m/s 763 mmHg 86%
    06:00 +20°C° 0 mm 2 m/s 763 mmHg 79%
    07:00 +21°C° 0 mm 2 m/s 763 mmHg 72%
    08:00 +23°C° 0 mm 2 m/s 763 mmHg 65%
    09:00 +25°C° 0 mm 2 m/s 763 mmHg 55%
    10:00 +28°C° 0 mm 2 m/s 763 mmHg 45%
    11:00 +30°C° 0 mm 2 m/s 763 mmHg 35%
    12:00 +30°C° 0 mm 2 m/s 763 mmHg 33%
    13:00 +31°C° 0 mm 3 m/s 762 mmHg 30%
    14:00 +31°C° 0 mm 3 m/s 762 mmHg 28%
    15:00 +31°C° 0 mm 3 m/s 762 mmHg 31%
    16:00 +30°C° 0 mm 3 m/s 762 mmHg 34%
    17:00 +29°C° 0 mm 3 m/s 761 mmHg 37%
    18:00 +27°C° 0 mm 2 m/s 762 mmHg 45%
    19:00 +24°C° 0 mm 2 m/s 762 mmHg 53%
    20:00 +21°C° 0 mm 2 m/s 762 mmHg 61%
    21:00 +21°C° 0 mm 2 m/s 762 mmHg 61%
    22:00 +21°C° 0 mm 1 m/s 762 mmHg 61%
    23:00 +21°C° 0 mm 1 m/s 762 mmHg 61%

    23 Septembrie, Duminică

    Timp Temperatura Precipitaţii Vânt Presiune Umiditate
    00:00 +21°C° 0 mm 1 m/s 762 mmHg 60%
    01:00 +20°C° 0 mm 2 m/s 762 mmHg 58%
    02:00 +20°C° 0 mm 2 m/s 762 mmHg 57%
    03:00 +19°C° 0 mm 2 m/s 762 mmHg 57%
    04:00 +19°C° 0 mm 2 m/s 762 mmHg 56%
    05:00 +19°C° 0 mm 2 m/s 762 mmHg 56%
    06:00 +20°C° 0 mm 3 m/s 762 mmHg 53%
    07:00 +22°C° 0 mm 3 m/s 762 mmHg 49%
    08:00 +25°C° 0 mm 3 m/s 763 mmHg 45%
    09:00 +26°C° 0 mm 4 m/s 763 mmHg 43%
    10:00 +27°C° 0 mm 5 m/s 764 mmHg 41%
    11:00 +28°C° 0 mm 6 m/s 764 mmHg 39%
    12:00 +27°C° 0 mm 7 m/s 764 mmHg 43%
    13:00 +27°C° 0 mm 7 m/s 764 mmHg 46%
    14:00 +26°C° 0 mm 7 m/s 764 mmHg 50%
    15:00 +24°C° 0 mm 7 m/s 764 mmHg 53%
    16:00 +23°C° 0 mm 7 m/s 765 mmHg 56%
    17:00 +22°C° 0 mm 6 m/s 765 mmHg 59%
    18:00 +21°C° 0 mm 6 m/s 765 mmHg 62%
    19:00 +20°C° 0 mm 5 m/s 766 mmHg 65%
    20:00 +18°C° 0 mm 4 m/s 766 mmHg 67%
    21:00 +18°C° 0 mm 4 m/s 766 mmHg 68%
    22:00 +18°C° 0 mm 4 m/s 766 mmHg 69%
    23:00 +17°C° 0 mm 3 m/s 766 mmHg 69%

    24 Septembrie, Luni

    Timp Temperatura Precipitaţii Vânt Presiune Umiditate
    00:00 +17°C° 0 mm 3 m/s 766 mmHg 71%
    01:00 +17°C° 0 mm 3 m/s 765 mmHg 73%
    02:00 +16°C° 0 mm 2 m/s 765 mmHg 75%
    03:00 +16°C° 0 mm 2 m/s 765 mmHg 78%
    04:00 +16°C° 0 mm 3 m/s 764 mmHg 80%
    05:00 +16°C° 0 mm 3 m/s 764 mmHg 83%
    06:00 +18°C° 0 mm 3 m/s 763 mmHg 79%
    07:00 +19°C° 0 mm 4 m/s 763 mmHg 75%
    08:00 +21°C° 0 mm 4 m/s 763 mmHg 71%
    09:00 +22°C° 0 mm 4 m/s 762 mmHg 64%
    10:00 +25°C° 0 mm 4 m/s 762 mmHg 57%
    11:00 +27°C° 0 mm 5 m/s 761 mmHg 50%
    12:00 +28°C° 0 mm 5 m/s 761 mmHg 47%
    13:00 +30°C° 0 mm 5 m/s 760 mmHg 43%
    14:00 +32°C° 0 mm 5 m/s 759 mmHg 40%
    15:00 +30°C° 0 mm 5 m/s 759 mmHg 42%
    16:00 +30°C° 0 mm 5 m/s 758 mmHg 44%
    17:00 +29°C° 0 mm 5 m/s 757 mmHg 46%
    18:00 +27°C° 0 mm 5 m/s 757 mmHg 55%
    19:00 +25°C° 0 mm 5 m/s 757 mmHg 64%
    20:00 +22°C° 0 mm 4 m/s 758 mmHg 72%
    21:00 +22°C° 0 mm 4 m/s 758 mmHg 71%
    22:00 +22°C° 0 mm 4 m/s 758 mmHg 71%
    23:00 +22°C° 0 mm 4 m/s 758 mmHg 70%
    Arată mai mult